Regional Weather Roundup
Issued by NWS

Home | Current Version | Previous Version | Graphics & Text | Print | Product List | Glossary On
Versions: 1 2 3 4 5 6 7 8 9 10 11 12 13 14 15 16 17 18 19 20 21 22 23 24 25 26 27 28 29 30 31 32 33 34 35 36 37 38 39 40 41 42 43 44 45 46 47 48 49 50
000
ASUS43 KMKX 100621
RWRWI

WISCONSIN REGIONAL WEATHER ROUNDUP
NATIONAL WEATHER SERVICE MILWAUKEE/SULLIVAN WI
1200 AM CST SAT DEC 10 2016

NOTE: "FAIR" INDICATES FEW OR NO CLOUDS BELOW 12,000 FEET WITH NO
SIGNIFICANT WEATHER AND/OR OBSTRUCTIONS TO VISIBILITY.

WIZ001-002-006>008-014>016-023>028-100700-
NORTHWEST WISCONSIN

CITY           SKY/WX    TMP DP  RH WIND       PRES   REMARKS
SUPERIOR ARPT  CLOUDY    10  -2  59 NW9       30.49S WCI  -4
6HR MIN TEMP:   9; 6HR MAX TEMP:  12;

ASHLAND        LGT SNOW   9   4  80 W8        30.46S WCI  -3
6HR MIN TEMP:   9; 6HR MAX TEMP:  12; 6HR PCP: TRACE;

HAYWARD        CLOUDY    10   0  63 VRB5      30.43R WCI   2
6HR MIN TEMP:  10; 6HR MAX TEMP:  13; 6HR PCP: TRACE;

SIREN          CLOUDY    11   3  70 CALM      30.46S
6HR MIN TEMP:  11; 6HR MAX TEMP:  14;

CUMBERLAND     CLOUDY    10   1  67 W9        30.42F WCI  -2
RICE LAKE      CLOUDY    12   3  67 W9        30.46S WCI   0
6HR MIN TEMP:  12; 6HR MAX TEMP:  16;

CHETEK         CLOUDY    13   4  70 NW8       30.45S WCI   1
6HR MIN TEMP:  13; 6HR MAX TEMP:  16;

LADYSMITH      CLOUDY    13   8  79 W8        30.43R WCI   2
6HR MIN TEMP:  13; 6HR MAX TEMP:  17;

EAU CLAIRE     CLOUDY    14   5  67 W9        30.46R WCI   2
6HR MIN TEMP:  14; 6HR MAX TEMP:  16; 6HR PCP: TRACE;

MENOMONIE      CLOUDY    14   5  68 W9        30.47S WCI   2
6HR MIN TEMP:  14; 6HR MAX TEMP:  18;

NEW RICHMOND   CLOUDY    12   3  69 W9        30.47S WCI  -1
6HR MIN TEMP:  12; 6HR MAX TEMP:  15;

OSCEOLA        CLOUDY    12   5  74 W8        30.51S WCI   0
6HR MIN TEMP:  12; 6HR MAX TEMP:  16;

$$

WIZ003>005-009-010-017-018-100700-
NORTH CENTRAL WISCONSIN

CITY           SKY/WX    TMP DP  RH WIND       PRES   REMARKS
MANITOWISH WTR CLOUDY     7   0  71 NW6       30.35S WCI  -3
6HR MIN TEMP:   7; 6HR MAX TEMP:  12;

ARBOR VITAE    CLOUDY    11   4  73 NW6       30.34F WCI   2
6HR MIN TEMP:  11; 6HR MAX TEMP:  17;

WOODRUFF       CLOUDY    11   4  73 NW6       30.34F WCI   2
6HR MIN TEMP:  11; 6HR MAX TEMP:  17;

RHINELANDER    CLOUDY    12   4  70 W7        30.34F WCI   1
6HR MIN TEMP:  12; 6HR MAX TEMP:  15;

EAGLE RIVER    CLOUDY     9   1  71 NW8       30.34S WCI  -3
6HR MIN TEMP:   9; 6HR MAX TEMP:  14;

LAND O LAKES   CLOUDY     9   1  70 W5        30.36S WCI   1
6HR MIN TEMP:   9; 6HR MAX TEMP:  13;

PHILLIPS       CLOUDY     9   4  78 NW7       30.37S WCI  -2
6HR MIN TEMP:   9; 6HR MAX TEMP:  14;

TOMAHAWK       CLOUDY    11   7  81 W6        30.36F WCI   2
6HR MIN TEMP:  11; 6HR MAX TEMP:  14;

MEDFORD        CLOUDY    12   5  74 W8        30.37S WCI   0
6HR MIN TEMP:  12; 6HR MAX TEMP:  14;

MERRILL        CLOUDY    14   9  80 NW6       30.38S WCI   5
6HR MIN TEMP:  14; 6HR MAX TEMP:  16;

$$

WIZ029-030-035-036-043>047-100700-
CENTRAL WISCONSIN

CITY           SKY/WX    TMP DP  RH WIND       PRES   REMARKS
WAUSAU         CLOUDY    15   9  76 W9        30.38F WCI   3
6HR MIN TEMP:  13; 6HR MAX TEMP:  15; 6HR PCP: TRACE;

MOSINEE        CLOUDY    14  12  92 W8        30.40S WCI   3
MARSHFIELD     LGT SNOW  14   9  80 W12       30.39S WCI   0
6HR MIN TEMP:  14; 6HR MAX TEMP:  16; 6HR PCP: TRACE;

STEVENS POINT  FLURRIES  14   7  73 W7        30.41F WCI   4
6HR MIN TEMP:  14; 6HR MAX TEMP:  16;

WAUPACA        CLOUDY    19  13  74 W7        30.43S WCI  10
6HR MIN TEMP:  17; 6HR MAX TEMP:  20;

WAUTOMA        PTCLDY    15   9  76 W9        30.45F WCI   3
6HR MIN TEMP:  13; 6HR MAX TEMP:  18; 6HR PCP:  0.20;

WISC RAPIDS    CLOUDY    16  10  77 W7        30.44S WCI   6
6HR MIN TEMP:  14; 6HR MAX TEMP:  17; 6HR PCP: TRACE;

CAMP DOUGLAS   FLURRIES  16  10  76 W9        30.46S WCI   4
6HR MIN TEMP:  14; 6HR MAX TEMP:  16; 6HR PCP: TRACE;

$$

WIZ011>013-019>022-031-037>040-048>050-100700-
NORTHEAST WISCONSIN

CITY           SKY/WX    TMP DP  RH WIND       PRES   REMARKS
ANTIGO         CLOUDY    13   8  78 W8        30.34F WCI   2
6HR MIN TEMP:  13; 6HR MAX TEMP:  15;

SHAWANO        MOCLDY    19   9  66 W3        30.41F
6HR MIN TEMP:  18; 6HR MAX TEMP:  22;

OCONTO         CLOUDY    19   9  65 W12       30.41F WCI   6
6HR MIN TEMP:  16; 6HR MAX TEMP:  21;

STURGEON BAY   CLOUDY    20   8  60 W10       30.40F WCI   9
6HR MIN TEMP:  19; 6HR MAX TEMP:  23; 6HR PCP:  0.02;

GREEN BAY      MOCLDY    19  10  68 W9        30.42F WCI   8
6HR MIN TEMP:  18; 6HR MAX TEMP:  22;

MANITOWOC      CLOUDY    20  10  65 NW10      30.44S WCI   9
6HR MIN TEMP:  18; 6HR MAX TEMP:  22;

APPLETON       CLOUDY    19  10  68 W7        30.40F WCI  10
CLINTONVILLE   CLOUDY    19  10  68 W7        30.41F WCI  10
OSHKOSH        CLOUDY    19  10  68 W9        30.43S WCI   8
6HR MIN TEMP:  16; 6HR MAX TEMP:  19;

$$

WIZ032>034-041-042-053>061-100700-
SOUTHWEST WISCONSIN

CITY           SKY/WX    TMP DP  RH WIND       PRES   REMARKS
LA CROSSE      CLOUDY    18  10  71 W12       30.50S WCI   5
6HR MIN TEMP:  17; 6HR MAX TEMP:  20;

SPARTA         CLOUDY    16  10  78 W9        30.48S WCI   5
6HR MIN TEMP:  16; 6HR MAX TEMP:  18;

VIROQUA        CLOUDY    15  11  85 W7        30.44F WCI   5
6HR MIN TEMP:  14; 6HR MAX TEMP:  15;

BOSCOBEL       CLOUDY    19  13  77 SW5       30.52R WCI  12
6HR MIN TEMP:  19; 6HR MAX TEMP:  21;

PRAIRIE DU CHI LGT SNOW  19  13  79 W5        30.52S WCI  12
6HR MIN TEMP:  18; 6HR MAX TEMP:  19;

PLATTEVILLE    PTCLDY    16  14  90 W5        30.49S WCI   9
6HR MIN TEMP:  15; 6HR MAX TEMP:  17;

$$

WIZ056-057-062-063-064-067-068-100700-
SOUTH CENTRAL WISCONSIN

CITY           SKY/WX    TMP DP  RH WIND       PRES   REMARKS
REEDSBURG      CLOUDY    16  10  77 W8        30.46S WCI   6
6HR MIN TEMP:  16; 6HR MAX TEMP:  19;

BARABOO/DELLS  CLOUDY    17  11  78 W7        30.45S WCI   7
6HR MIN TEMP:  17; 6HR MAX TEMP:  18;

LONE ROCK      CLOUDY    18  11  74 W10       30.50S WCI   6
6HR MIN TEMP:  18; 6HR MAX TEMP:  20;

MINERAL POINT  CLOUDY    18  14  86 W8        30.46S WCI   7
MADISON        CLOUDY    18  11  74 W6        30.46F WCI  10
6HR MIN TEMP:  18; 6HR MAX TEMP:  20;

MIDDLETON      CLOUDY    19  14  80 W3        30.47S
6HR MIN TEMP:  17; 6HR MAX TEMP:  20;

WATERTOWN      CLOUDY    18  13  80 W3        30.45F
6HR MIN TEMP:  17; 6HR MAX TEMP:  19;

MONROE         PTCLDY    18  14  86 W7        30.46S WCI   8
JANESVILLE     MOCLDY    21  14  73 W8        30.48S WCI  12
$$

WIZ051-052-058>065-066-070>072-100700-
SOUTHEAST WISCONSIN

CITY           SKY/WX    TMP DP  RH WIND       PRES   REMARKS
MILWAUKEE      CLOUDY    20  12  71 W6        30.47S WCI  12
6HR MIN TEMP:  20; 6HR MAX TEMP:  23;

WAUKESHA       CLOUDY    18  12  79 SW6       30.46S WCI   9
MILWAUKEE/TIMM CLOUDY    19  12  73 SW6       30.46F WCI  11
RACINE         PTCLDY    19  11  70 W5        30.49S WCI  12
6HR MIN TEMP:  18; 6HR MAX TEMP:  22;

BURLINGTON     PTCLDY    22  18  83 W7        30.47F WCI  14
6HR MIN TEMP:  18; 6HR MAX TEMP:  24;

KENOSHA        MOCLDY    18  13  80 SW7       30.48S WCI   9
6HR MIN TEMP:  14; 6HR MAX TEMP:  20;

FOND DU LAC    CLEAR     16   8  71 W5        30.44F WCI   9
6HR MIN TEMP:  15; 6HR MAX TEMP:  19;

SHEBOYGAN      MOCLDY    16   9  74 SW6       30.43F WCI   7
6HR MIN TEMP:  16; 6HR MAX TEMP:  20;

WEST BEND      MOCLDY    19  12  73 W6        30.43F WCI  11
JUNEAU         PTCLDY    14  10  83 SW5       30.45S WCI   7
6HR MIN TEMP:  13; 6HR MAX TEMP:  17;

$$

LSZ147-162-100700-
LAKE SUPERIOR

STATION/POSITION TIME  TEMP    WIND        PRES    WAVE
                       AIR SEA DIR/SP/G            HT/PER
                 (UTC) (F)     (DEG/KT/KT) (MB)    (FT/S)
DEVILS ISLAND    0600   10     270/ 11/ 15 1032.8S
PORT WING        0540   12     320/ 13/ 17 1031.5S
SAXON HARBOR     0540   11     220/  6/  8 1031.2S
$$

LMZ867-665-643>646-100700-
LAKE MICHIGAN

STATION/POSITION TIME  TEMP    WIND        PRES    WAVE
               C1F1C2F2C3F3C4F4C5F5C6F6C7F7C8M1C9M2Ca!


USA.gov is the U.S. government's official web portal to all federal, state and local government web resources and services.